Tracking 19792 objects as of 17-Jul-2019
HD Live streaming from Space Station
objects crossing your sky now

SL-16 DEB

Track SL-16 DEB now!
10-day predictions


NORAD ID: 25862
Int'l Code: 1999-039C
Perigee: 648.3 km
Apogee: 885.1 km
Inclination: 97.7 °
Period: 100.0 minutes
Semi major axis: 7137 km
RCS: 0.0838 m2 (small)
Launch date: July 17, 1999
Source: Commonwealth of Independent States (former USSR) (CIS)
Launch site: TYURATAM MISSILE AND SPACE COMPLEX (TTMTR)

Note: This is SATELLITE DEBRIS
aabbcc
Your satellite tracking list
Your tracking list is empty




NASA's NSSDC Master Catalog

Two Line Element Set (TLE):
1 25862U 99039C   19196.47468038 +.00000073 +00000-0 +31934-4 0  9993
2 25862 097.7175 009.4980 0165879 310.2714 048.4071 14.39688772048590
Source of the keplerian elements: AFSPC